User: anonymous   Login
Location: Unspecified
(0.0000°N, 0.0000°E)
Time: 00:50:09
(UTC+00:00)
Language:

TBA - TO BE ASSIGNED - Orbit

View from above orbital plane
View from above orbital plane
View from above satellite
View from above satellite

Ground track
Ground track

The orbit is defined by the following mean orbital elements,

1 68222U          26145.64377727 +.00000000 +00000-0 +46972-3 0 00005
2 68222  97.2864  21.1194 0001666  87.7605 272.3828 15.33453897    08
Epoch (UTC): 25 May 2026 15:27:02
Eccentricity: 0.0001666
inclination: 97.2864°
perigee height: 464 km
apogee height: 467 km
right ascension of ascending node: 21.1194°
argument of perigee: 87.7605°
revolutions per day: 15.33453897
mean anomaly at epoch: 272.3828°

The dashed part of the orbit path shows where the satellite is in the earth's shadow,  

DLR